Погода в Джурине

Украина / Винницкая область     48°41′07″N   28°17′41″E
темп.,
°C
ветер,
м/с
пор.,
м/с
влажн.,
%
обл.,
%
осадки,
мм/ч
давл.,
гПа
погр.,
м
9 мая, вс
вс900:00+3зсз412855 0.0 1022298
03:00+2сз39900 0.0 1023182
06:00+2зсз37930 0.0 1025140
09:00+8сз57663 0.0 1026742
12:00+12сз46475 0.0 10261630
15:00+14сз354140 0.0 10252241
18:00+14ссз134265 0.0 10251971
21:00+8вюв22605 0.0 102715
10 мая, пн
пн1000:00+7юв33651 0.0 102730
03:00+6ююв33674 0.0 102730
06:00+5юв34680 0.0 102748
09:00+11юв46587 0.0 1028397
12:00+15ююв56485 0.0 10271378
15:00+17юв454620 0.0 10261486
18:00+16юв44520 0.0 10241379
21:00+10вюв47730 0.0 1025110
11 мая, вт
вт1100:00+8в47750 0.0 1026116
03:00+6в48800 0.0 1025132
06:00+5в36780 0.0 102598
09:00+12в45600 0.0 1024434
12:00+15всв45460 0.0 10221053
15:00+18всв34519 0.0 10201192
18:00+17всв56635 0.0 10191137
21:00+11всв37876 0.0 1019136
12 мая, ср
ср1200:00+10всв499758 0.0 1018230
03:00+8в389836 0.0 1017262
06:00+6всв37966 0.0 1017161
09:00+11всв477089 0.0 1016776
12:00+13всв5659100 0.0 10141648
15:00+11всв4571100 0.1 1013729
18:00+13всв3461100 0.1 10121177
21:00+8в338697 0.3 101132
13 мая, чт
чт1300:00+6в34928 0.0 101152
03:00+5в349390 0.0 101069
06:00+6в3791100 0.0 1009174
09:00+8юв51196100 3.2 1009543
12:00+8юв61192100 2.9 1009530
15:00+10юв61094100 3.0 1009593
18:00+9вюв51095100 1.3 1009412
21:00+9вюв3798100 1.9 1009309